Regional Weather Roundup
Issued by NWS Wakefield, VA

Home | Current Version | Previous Version | Text Only | Print | Product List | Glossary Off
Versions: 1 2 3 4 5 6 7 8 9 10 11 12 13 14 15 16 17 18 19 20 21 22 23 24 25 26 27 28 29 30 31 32 33 34 35 36 37 38 39 40 41 42 43 44 45 46 47 48 49 50

000
ASUS41 KAKQ 200310
RWRAKQ

REGIONAL WEATHER ROUNDUP
NATIONAL WEATHER SERVICE WAKEFIELD VA
1100 PM EDT FRI SEP 19 2014

Note: "fair" indicates few or no clouds below 12,000 feet with no
significant weather and/or obstructions to visibility. * = Denotes
station may not report precipitation (e.g., rain,snow,etc.),
thunder or fog.

VAZ042-051-052>054-056-200400-
NORTHERN VIRGINIA

CITY           SKY/WX    TMP DP  RH WIND       PRES   REMARKS
WASH NATIONAL  CLOUDY    69  59  70 E8G17     30.31R
DULLES         CLOUDY    65  59  81 SE13G22   30.30R
FORT BELVOIR   MOCLDY    66  60  81 E8        30.30S
QUANTICO       MOCLDY    68  61  78 SE12      30.30R
FREDERICKSBRG* CLOUDY    62  58  84 CALM      30.29R
STAFFORD*      CLOUDY    64  64 100 E5        30.33R
WARRENTON      CLOUDY    67  64  90 E8        30.28S
CULPEPER*      MOCLDY    66  59  77 CALM      30.30R
MANASSAS*      CLOUDY    66  61  82 E5        30.30R
LEESBURG*      CLOUDY    68  63  83 SE7       30.30R
WINCHESTER     CLOUDY    64  55  72 SE7       30.27F
FRONT ROYAL*   CLOUDY    64  59  82 SE5       30.27S
LURAY*         MOCLDY    63  59  88 CALM      30.27S
$$

VAZ048-049-060>072-079>083-200400-
CENTRAL AND SOUTH CENTRAL VIRGINIA...AND NORTH CENTRAL NORTH CAROLINA

CITY           SKY/WX    TMP DP  RH WIND       PRES   REMARKS
RICHMOND       PTCLDY    64  58  80 NE3       30.28R
CHESTERFIELD*  MOCLDY   N/A N/A N/A CALM      30.29R
PETERSBURG*    CLEAR     62  56  80 CALM      30.28R
HANOVER        CLEAR     62  60  93 CALM      30.30R
TAPPAHANNOCK*  CLEAR     59  55  88 CALM      30.29S
CHARLOTTSVILLE CLOUDY    63  60  90 CALM      30.28R
ORANGE*        CLOUDY    64  55  72 CALM      30.30R
LOUISA*        CLOUDY    66  61  82 CALM      30.28R
FARMVILLE*     CLOUDY    64  64 100 CALM      30.26R
CREWE*         CLEAR     60  58  92 CALM      30.27S
FORT PICKETT*  CLEAR     61  58  89 E5        30.27S
LUNENBURG*     MOCLDY    66  58  76 CALM      30.26S
SOUTH HILL*    CLOUDY    64  61  88 CALM      30.31R
LAWRENCEVILLE* CLEAR     62  58  87 NE3       30.26S
ROANOKE RAPIDS MOCLDY    63  59  88 CALM      30.26R
RALEIGH        CLEAR     66  57  72 E6        30.24R
$$

VAZ088>098-200400-
SOUTHEAST VIRGINIA

CITY           SKY/WX    TMP DP  RH WIND       PRES   REMARKS
NORFOLK        CLEAR     69  56  62 E6        30.26S
VIRGINIA BEACH PTCLDY    70  57  63 E12       30.25F
NORFOLK NAVAL  PTCLDY    70  57  63 E5        30.28S
WEST POINT*    CLEAR     63  59  87 E3        30.29S
NEWPORT NEWS   CLEAR     63  57  81 CALM      30.27S
LANGLEY AFB    CLEAR     68  58  69 E8        30.27R
FORT EUSTIS    CLEAR     65  61  87 E2        30.26S
WILLIAMSBURG*  CLEAR     64  61  88 CALM      30.28F
HR EXEC AP*    CLEAR     55  52  88 CALM      30.29R
FRANKLIN*      CLEAR     59  57  94 CALM      30.27R
WAKEFIELD      CLEAR     60  57  89 CALM      30.27S
$$

VAZ020-022-025-037-045-200400-
WEST CENTRAL AND SOUTHWEST VIRGINIA

CITY           SKY/WX    TMP DP  RH WIND       PRES   REMARKS
STAUNTON*      CLOUDY    62  56  82 CALM      30.31S
HOT SPRINGS VA CLOUDY    52  50  93 SE6       30.35S FOG
LYNCHBURG      CLOUDY    61  58  90 N5        30.29R
DANVILLE       CLOUDY    66  61  84 NE3       30.26R
SOUTH BOSTON*  NOT AVBL
MARTINSVILLE   CLOUDY    63  63  99 CALM      30.31R
ROANOKE        CLOUDY    62  57  83 NE3       30.30S
BLACKSBURG     MOCLDY    57  57 100 CALM      30.32R FOG
DUBLIN*        CLOUDY    60  60 100 E3        30.31S FOG
MARION*        CLOUDY    63  58  82 E10       30.30S
HILLSVILLE*    CLOUDY    59  58  95 SE5       30.30S
RICHLANDS*     CLEAR     65  58  78 SE7       30.23S
WISE*          CLEAR     63  54  72 S9        30.23S
ABINGDON*      CLEAR     63  57  81 E3        30.23S
$$

MDZ021>025-VAZ099-100-200400-
SOUTHERN MARYLAND AND THE DELMARVA PENINSULA

CITY           SKY/WX    TMP DP  RH WIND       PRES   REMARKS
PATUXENT RIVER PTCLDY    67  61  81 E9        30.30R
BAY BRIDGE APT   N/A     63  59  88 E8        30.31S
LEONARDTOWN    PTCLDY    64  59  82 E6        30.31R
DOVER          PTCLDY    63  61  91 NE7       30.30S
GEORGETOWN     CLEAR     63  58  83 E12       30.31S
EASTON         CLEAR     61  61 100 CALM      30.35R
CAMBRIDGE      CLEAR     61  57  88 CALM      30.31R
SALISBURY      CLEAR     61  57  87 E3        30.30S
OCEAN CITY     PTCLDY    70  59  68 E10       30.30R
WALLOPS ISLAND CLEAR     69  61  75 E9        30.30R
ACCOMACK*      CLEAR     55  54  94 NE3       30.28S FOG
$$

NCZ012>017-030>032-200400-
EASTERN NORTH CAROLINA

CITY           SKY/WX    TMP DP  RH WIND       PRES   REMARKS
ELIZABETH CITY CLEAR     67  60  78 NE8       30.25S
AHOSKIE*       CLEAR     62  57  84 CALM      30.25S
EDENTON*       CLEAR     63  59  88 N5        30.25S
CURRITUCK*     CLEAR     71  58  63 E6        30.26R
KILL DEVIL HLS CLEAR     72  59  63 E7        30.23R
MANTEO         CLEAR     71  59  66 NE14      30.24S
CAPE HATTERAS  MOCLDY    70  62  76 NE10G20   30.20S
TARBORO*       CLEAR     62  59  88 CALM      30.25S
GOLDSBORO      CLEAR     66  64  93 NE8       30.20R
WASHINGTON     PTCLDY    64  58  81 NE5       30.23S
GREENVILLE     CLEAR     64  59  82 CALM      30.24S
NEW BERN       MOCLDY    70  59  68 NE9       30.22S
WILMINGTON     MOCLDY    70  61  73 NE12      30.17S
$$

VAZ048-200400-
ELSEWHERE

CITY           SKY/WX    TMP DP  RH WIND       PRES   REMARKS
HARRISBURG PA  MOCLDY    61  54  77 SE10      30.30S
BALTIMORE      CLOUDY    64  58  80 E6        30.31S
ANNAPOLIS      PTCLDY    66  59  78 E7        30.32R
ANDREWS AFB    CLOUDY    65  60  84 E6        30.31R
WILMINGTON DE  CLEAR     60  55  83 E6        30.34F
PHILADELPHIA   CLEAR     59  54  83 E9        30.35S
WILDWOOD NJ*   MOCLDY    66  55  68 E9        30.34R
ATLANTIC CITY  MOCLDY    64  58  80 E9        30.33F
HENDERSON NC   CLEAR     64  57  80 E6        30.26S
GREENSBORO     PTCLDY    63  61  93 N3        30.26R
ROCKY MOUNT    CLEAR     63  58  83 NE5       30.24S
FAYETTEVILLE   CLEAR     66  60  81 NE6       30.20R
CHARLOTTE      CLOUDY    70  59  68 NE9       30.22R
$$

VAZ100-200400-
MARINE

STATION/POSITION TIME  TEMP    WIND        PRES    WAVE   SWELL
                       AIR SEA DIR/SP/G            HT/PER HT/PER
                 (UTC) (F)     (DEG/KT/KT) (MB)    (FT/S) (FT/S)
44066 TX TWR #4  0300   64 72   90/ 14/ 16 1027.9S   5/ 7   3/ 7
CAPE MAY NJ      0300   67 75   90/  6/  9 1026.2S
LEWES DE         0300   69 72  110/ 14/ 18 1026.1S
15NM E FENWICK I 0300   70 72              1025.8R   6/ 6
OCEAN-CITY-INLET 0300   70 72  120/  9/ 15 1025.7R
WACHAPREAGUE VA  0300   70 74   90/  9/ 13 1025.4R
THOMAS POINT MD  0300   66 73  110/ 12/ 14 1027.4R
GOOSES REEF MD   0300   68     110/ 14/ 16 1026.4R
COVE POINT MD    0300   66     110/  9/ 12 1026.0R
SOLOMONS ISLAND  0300      76                N/A
BISHOPS HEAD MD  0300   68 72   80/  6/ 10 1025.5R
PINEY POINT MD   0300          110/ 11/ 13   N/A
POTOMAC MD       0300   71     120/ 10/ 14 1025.1R
CAMBRIDGE MD     0300   66 75   60/  6/  8 1026.1S
LEWISETTA VA     0300   71 74  110/ 12/ 15 1025.2F
RAPPAHANNOCK LGT 0300           70/ 12/ 13 1025.6S
STINGRAY PT      0300   72     100/ 12/ 14   N/A
YORK RVR RNG VA  0300   72     100/ 12/ 13 1024.6F
YORKTOWN VA      0300   72 76  100/ 10/ 12 1024.8F
JAMESTOWN VA     0300   67      80/  4/  6   N/A
DOMINION TERM VA 0300   72      90/ 10/ 15 1025.0R
KIPTOPEKE VA     0300      79  100/  6/  9   N/A
CHES BAY BRIDGE  0300   72 75   70/ 15/ 19 1024.1S
CAPE HENRY VA    0300   72      80/ 14/ 18 1023.4R
CHESAPEAKE LGHT  0200   71      70/ 16/ 17 1025.3R
WILLOUBY STN VA  0300   72      60/ 11/ 13 1023.6R
S CRANEY ISL VA  0300           60/  6/  8 1024.5R
CAPE HENRY BUOY  0300      75                N/A     3/10
1ST LANDING BUOY 0300   72      80/ 14/ 17 1024.3S
CAPE CHARLES BUO 0300      74                N/A     3/ 4   2/ 9
OFFSHORE WE BUOY 0300      74                N/A     4/ 5   2/ 9
64NM E OF VA BCH 0300   73 75   50/ 16/ 19 1023.6S   4/ 6   2/ 9
DUCK PIER NC     0300   73 75   60/ 19/ 20 1023.4S
44100 DUCK FRF   0300      74                N/A     4/ 6   2/11
44056 DUCK FRF   0300                        N/A     5/ 5
OREGON INLET NC  0300   73 74   40/ 15/ 18 1023.4R
HATTERAS NC      0300   73 76   40/ 12/ 18 1023.0S
DIAMOND SHLS NC  0300   76      70/ 17/ 21 1021.8F   6/ 7   2/10
CAPE LOOKOUT NC  0200   74      40/ 22/ 26 1021.9S
$$


USA.gov is the U.S. government's official web portal to all federal, state and local government web resources and services.